| time (UTC) | temp F | wind direction | speed MPH | gust MPH | rain 1hr in | rain 24hr in | rain mn in | humidity % | barometer mb |
| 20260510192207 | 83 | 336 | 4.0 | 9.0 | 0.00 | 0.01 | 0.00 | 13 | 1017.0 |
| 20260510191707 | 82 | 294 | 4.0 | 9.0 | 0.00 | 0.01 | 0.00 | 13 | 1017.0 |
| 20260510191207 | 82 | 309 | 3.0 | 9.0 | 0.00 | 0.01 | 0.00 | 13 | 1017.0 |
| 20260510190707 | 82 | 31 | 4.0 | 9.0 | 0.00 | 0.01 | 0.00 | 13 | 1016.9 |
| 20260510190207 | 83 | 79 | 4.0 | 9.0 | 0.00 | 0.01 | 0.00 | 14 | 1016.8 |
| 20260510185707 | 83 | 329 | 0.0 | 8.0 | 0.00 | 0.01 | 0.00 | 13 | 1017.0 |
| 20260510185207 | 83 | 14 | 1.0 | 12.0 | 0.00 | 0.01 | 0.00 | 13 | 1017.0 |
| 20260510184707 | 83 | 347 | 3.0 | 12.0 | 0.00 | 0.01 | 0.00 | 13 | 1017.0 |
| 20260510184207 | 84 | 31 | 5.0 | 11.0 | 0.00 | 0.01 | 0.00 | 12 | 1017.1 |
| 20260510183707 | 83 | 335 | 6.0 | 10.0 | 0.00 | 0.01 | 0.00 | 13 | 1017.0 |
| 20260510183207 | 83 | 350 | 5.0 | 9.0 | 0.00 | 0.01 | 0.00 | 12 | 1017.0 |
| 20260510182707 | 83 | 0 | 1.0 | 11.0 | 0.00 | 0.01 | 0.00 | 12 | 1017.1 |
| 20260510182207 | 83 | 308 | 5.0 | 11.0 | 0.00 | 0.01 | 0.00 | 11 | 1017.1 |
| 20260510181707 | 84 | 294 | 0.0 | 10.0 | 0.00 | 0.01 | 0.00 | 12 | 1017.0 |
| 20260510181207 | 83 | 354 | 4.0 | 10.0 | 0.00 | 0.01 | 0.00 | 12 | 1017.0 |
| 20260510180707 | 82 | 318 | 2.0 | 6.0 | 0.00 | 0.01 | 0.00 | 13 | 1017.0 |
| 20260510180207 | 82 | 329 | 0.0 | 9.0 | 0.00 | 0.01 | 0.00 | 13 | 1017.0 |
| 20260510175707 | 82 | 8 | 3.0 | 10.0 | 0.00 | 0.01 | 0.00 | 12 | 1017.1 |
| 20260510175206 | 82 | 27 | 7.0 | 10.0 | 0.00 | 0.01 | 0.00 | 13 | 1017.0 |
| 20260510174707 | 82 | 333 | 5.0 | 10.0 | 0.00 | 0.01 | 0.00 | 13 | 1017.0 |
| 20260510174207 | 82 | 359 | 6.0 | 10.0 | 0.00 | 0.01 | 0.00 | 12 | 1017.0 |
| 20260510173707 | 82 | 347 | 5.0 | 12.0 | 0.00 | 0.01 | 0.00 | 12 | 1016.9 |
| 20260510173206 | 82 | 319 | 4.0 | 12.0 | 0.00 | 0.01 | 0.00 | 12 | 1017.0 |
| 20260510172707 | 82 | 316 | 5.0 | 12.0 | 0.00 | 0.01 | 0.00 | 12 | 1016.9 |
| 20260510172206 | 83 | 311 | 3.0 | 8.0 | 0.00 | 0.01 | 0.00 | 11 | 1016.8 |
| 20260510171706 | 84 | 328 | 3.0 | 8.0 | 0.00 | 0.01 | 0.00 | 12 | 1016.8 |
| 20260510171206 | 83 | 266 | 0.0 | 10.0 | 0.00 | 0.01 | 0.00 | 13 | 1016.7 |
| 20260510170706 | 83 | 318 | 2.0 | 10.0 | 0.00 | 0.01 | 0.00 | 13 | 1016.6 |
| 20260510170206 | 83 | 31 | 0.0 | 11.0 | 0.00 | 0.01 | 0.00 | 12 | 1016.6 |
| 20260510165706 | 82 | 345 | 9.0 | 11.0 | 0.00 | 0.01 | 0.00 | 13 | 1016.6 |
| 20260510165206 | 83 | 3 | 0.0 | 10.0 | 0.00 | 0.01 | 0.00 | 14 | 1016.7 |
| 20260510164706 | 82 | 31 | 7.0 | 10.0 | 0.00 | 0.01 | 0.00 | 14 | 1016.7 |
| 20260510164206 | 81 | 34 | 5.0 | 12.0 | 0.00 | 0.01 | 0.00 | 13 | 1016.6 |
| 20260510163706 | 81 | 63 | 0.0 | 12.0 | 0.00 | 0.01 | 0.00 | 14 | 1016.6 |
| 20260510163206 | 80 | 333 | 4.0 | 17.0 | 0.00 | 0.01 | 0.00 | 15 | 1016.4 |
| 20260510162706 | 80 | 8 | 6.0 | 17.0 | 0.00 | 0.01 | 0.00 | 14 | 1016.4 |
| 20260510162206 | 81 | 1 | 8.0 | 15.0 | 0.00 | 0.01 | 0.00 | 15 | 1016.3 |
| 20260510161706 | 81 | 347 | 8.0 | 15.0 | 0.00 | 0.01 | 0.00 | 14 | 1016.2 |
| 20260510161206 | 81 | 357 | 7.0 | 15.0 | 0.00 | 0.01 | 0.00 | 15 | 1016.2 |
| 20260510160706 | 80 | 1 | 10.0 | 15.0 | 0.00 | 0.01 | 0.00 | 14 | 1016.1 |
| 20260510160206 | 81 | 55 | 12.0 | 15.0 | 0.00 | 0.01 | 0.00 | 14 | 1016.0 |
| 20260510155706 | 81 | 0 | 10.0 | 15.0 | 0.00 | 0.01 | 0.00 | 14 | 1015.9 |
| 20260510155206 | 82 | 34 | 9.0 | 15.0 | 0.00 | 0.01 | 0.00 | 14 | 1015.7 |
| 20260510154706 | 82 | 8 | 8.0 | 18.0 | 0.00 | 0.01 | 0.00 | 13 | 1015.7 |
| 20260510154206 | 81 | 30 | 11.0 | 18.0 | 0.00 | 0.01 | 0.00 | 13 | 1015.5 |
| 20260510153707 | 81 | 45 | 12.0 | 17.0 | 0.00 | 0.01 | 0.00 | 13 | 1015.5 |
| 20260510153206 | 81 | 24 | 8.0 | 16.0 | 0.00 | 0.01 | 0.00 | 13 | 1015.4 |
| 20260510152706 | 81 | 354 | 8.0 | 17.0 | 0.00 | 0.01 | 0.00 | 14 | 1015.4 |
| 20260510152206 | 81 | 20 | 9.0 | 17.0 | 0.00 | 0.01 | 0.00 | 14 | 1015.4 |
| 20260510151706 | 82 | 8 | 9.0 | 16.0 | 0.00 | 0.01 | 0.00 | 13 | 1015.4 |
| 20260510151206 | 81 | 48 | 8.0 | 15.0 | 0.00 | 0.01 | 0.00 | 13 | 1015.4 |
| 20260510150706 | 81 | 8 | 10.0 | 13.0 | 0.00 | 0.01 | 0.00 | 12 | 1015.3 |
| 20260510150206 | 81 | 353 | 6.0 | 15.0 | 0.00 | 0.01 | 0.00 | 12 | 1015.3 |
| 20260510145706 | 81 | 6 | 9.0 | 17.0 | 0.00 | 0.01 | 0.00 | 12 | 1015.3 |
| 20260510145206 | 81 | 343 | 6.0 | 17.0 | 0.00 | 0.01 | 0.00 | 13 | 1015.3 |
| 20260510144706 | 80 | 349 | 9.0 | 18.0 | 0.00 | 0.01 | 0.00 | 13 | 1015.2 |
| 20260510144206 | 80 | 15 | 12.0 | 18.0 | 0.00 | 0.01 | 0.00 | 13 | 1015.2 |
| 20260510143706 | 77 | 356 | 5.0 | 10.0 | 0.00 | 0.01 | 0.00 | 15 | 1014.9 |
| 20260510143206 | 75 | 276 | 0.0 | 7.0 | 0.00 | 0.01 | 0.00 | 19 | 1014.8 |
| 20260510142706 | 74 | 276 | 0.0 | 7.0 | 0.00 | 0.01 | 0.00 | 21 | 1014.8 |
| 20260510142206 | 73 | 249 | 1.0 | 5.0 | 0.00 | 0.01 | 0.00 | 21 | 1014.7 |
| 20260510141706 | 73 | 13 | 0.0 | 0.0 | 0.00 | 0.01 | 0.00 | 22 | 1014.5 |
| 20260510141206 | 73 | 13 | 0.0 | 0.0 | 0.00 | 0.01 | 0.00 | 22 | 1014.6 |
| 20260510140706 | 73 | 13 | 0.0 | 0.0 | 0.00 | 0.01 | 0.00 | 22 | 1014.6 |
| 20260510140206 | 72 | 13 | 0.0 | 0.0 | 0.00 | 0.01 | 0.00 | 21 | 1014.5 |
| 20260510135706 | 71 | 13 | 0.0 | 0.0 | 0.00 | 0.01 | 0.00 | 20 | 1014.6 |
| 20260510135206 | 70 | 13 | 0.0 | 6.0 | 0.00 | 0.01 | 0.00 | 21 | 1014.6 |
| 20260510134706 | 70 | 13 | 0.0 | 7.0 | 0.00 | 0.01 | 0.00 | 22 | 1014.7 |
| 20260510134206 | 70 | 357 | 4.0 | 7.0 | 0.00 | 0.01 | 0.00 | 23 | 1014.8 |
| 20260510133706 | 70 | 346 | 4.0 | 7.0 | 0.00 | 0.01 | 0.00 | 23 | 1014.6 |
| 20260510133206 | 70 | 27 | 5.0 | 7.0 | 0.00 | 0.01 | 0.00 | 22 | 1014.5 |
| 20260510132706 | 70 | 354 | 2.0 | 5.0 | 0.00 | 0.01 | 0.00 | 23 | 1014.8 |
| 20260510132206 | 68 | 166 | 0.0 | 7.0 | 0.00 | 0.01 | 0.00 | 23 | 1015.2 |
| 20260510131706 | 67 | 208 | 5.0 | 7.0 | 0.00 | 0.01 | 0.00 | 24 | 1015.2 |
| 20260510131206 | 66 | 58 | 0.0 | 0.0 | 0.00 | 0.01 | 0.00 | 27 | 1015.0 |
| 20260510130706 | 65 | 58 | 0.0 | 4.0 | 0.00 | 0.01 | 0.00 | 28 | 1014.8 |
| 20260510130206 | 64 | 58 | 0.0 | 5.0 | 0.00 | 0.01 | 0.00 | 28 | 1014.6 |
| 20260510125706 | 64 | 51 | 2.0 | 5.0 | 0.00 | 0.01 | 0.00 | 27 | 1014.5 |
| 20260510125206 | 63 | 96 | 0.0 | 4.0 | 0.00 | 0.01 | 0.00 | 28 | 1014.3 |
| 20260510124706 | 63 | 63 | 0.0 | 4.0 | 0.00 | 0.01 | 0.00 | 30 | 1014.6 |
| 20260510124206 | 63 | 63 | 0.0 | 4.0 | 0.00 | 0.01 | 0.00 | 29 | 1014.5 |
| 20260510123706 | 64 | 62 | 0.0 | 3.0 | 0.00 | 0.01 | 0.00 | 28 | 1014.5 |
| 20260510123206 | 64 | 314 | 0.0 | 0.0 | 0.00 | 0.01 | 0.00 | 27 | 1014.3 |
| 20260510122706 | 64 | 314 | 0.0 | 0.0 | 0.00 | 0.01 | 0.00 | 27 | 1014.3 |
| 20260510122206 | 64 | 314 | 0.0 | 0.0 | 0.00 | 0.01 | 0.00 | 27 | 1014.2 |
| 20260510121706 | 64 | 314 | 0.0 | 0.0 | 0.00 | 0.01 | 0.00 | 27 | 1014.1 |
| 20260510121206 | 64 | 314 | 0.0 | 0.0 | 0.00 | 0.01 | 0.00 | 27 | 1014.0 |
| 20260510120706 | 65 | 314 | 0.0 | 1.0 | 0.00 | 0.01 | 0.00 | 25 | 1013.9 |
| 20260510120206 | 67 | 314 | 0.0 | 1.0 | 0.00 | 0.01 | 0.00 | 24 | 1013.8 |
| 20260510115706 | 68 | 314 | 0.0 | 0.0 | 0.00 | 0.01 | 0.00 | 22 | 1013.8 |
| 20260510115206 | 69 | 314 | 0.0 | 0.0 | 0.00 | 0.01 | 0.00 | 19 | 1013.9 |
| 20260510114706 | 70 | 314 | 0.0 | 0.0 | 0.00 | 0.01 | 0.00 | 19 | 1013.8 |
| 20260510114206 | 71 | 314 | 0.0 | 0.0 | 0.00 | 0.01 | 0.00 | 19 | 1013.6 |
| 20260510113706 | 72 | 314 | 0.0 | 0.0 | 0.00 | 0.01 | 0.00 | 18 | 1013.6 |
| 20260510113206 | 72 | 314 | 0.0 | 0.0 | 0.00 | 0.01 | 0.00 | 16 | 1013.6 |
| 20260510112706 | 73 | 314 | 0.0 | 0.0 | 0.00 | 0.01 | 0.00 | 16 | 1013.6 |
| 20260510112206 | 73 | 314 | 0.0 | 0.0 | 0.00 | 0.01 | 0.00 | 15 | 1013.5 |
| 20260510111706 | 73 | 314 | 0.0 | 0.0 | 0.00 | 0.01 | 0.00 | 15 | 1013.5 |
| 20260510111206 | 74 | 314 | 0.0 | 4.0 | 0.00 | 0.01 | 0.00 | 15 | 1013.5 |
| 20260510110706 | 74 | 314 | 0.0 | 5.0 | 0.00 | 0.01 | 0.00 | 14 | 1013.4 |
| 20260510110206 | 75 | 21 | 0.0 | 11.0 | 0.00 | 0.01 | 0.00 | 14 | 1013.3 |
| 20260510105706 | 75 | 7 | 5.0 | 11.0 | 0.00 | 0.01 | 0.00 | 14 | 1013.2 |
| 20260510105206 | 74 | 4 | 6.0 | 11.0 | 0.00 | 0.01 | 0.00 | 14 | 1013.2 |
| 20260510104706 | 74 | 25 | 3.0 | 7.0 | 0.00 | 0.01 | 0.00 | 15 | 1013.1 |
| 20260510104206 | 75 | 352 | 0.0 | 10.0 | 0.00 | 0.01 | 0.00 | 14 | 1012.9 |
| 20260510103706 | 74 | 6 | 5.0 | 10.0 | 0.00 | 0.01 | 0.00 | 14 | 1012.8 |
| 20260510103206 | 73 | 357 | 2.0 | 8.0 | 0.00 | 0.01 | 0.00 | 16 | 1012.6 |
| 20260510102706 | 73 | 31 | 0.0 | 7.0 | 0.00 | 0.01 | 0.00 | 16 | 1012.5 |
| 20260510102206 | 73 | 38 | 4.0 | 7.0 | 0.00 | 0.01 | 0.00 | 17 | 1012.4 |
| 20260510101706 | 72 | 45 | 4.0 | 7.0 | 0.00 | 0.01 | 0.00 | 17 | 1012.4 |
| 20260510101206 | 72 | 30 | 3.0 | 6.0 | 0.00 | 0.01 | 0.00 | 17 | 1012.4 |
| 20260510100706 | 71 | 8 | 0.0 | 8.0 | 0.00 | 0.01 | 0.00 | 18 | 1012.2 |
| 20260510100206 | 68 | 39 | 5.0 | 8.0 | 0.00 | 0.01 | 0.00 | 21 | 1012.1 |
| 20260510095706 | 66 | 45 | 0.0 | 5.0 | 0.00 | 0.01 | 0.00 | 24 | 1012.0 |
| 20260510095206 | 66 | 80 | 3.0 | 4.0 | 0.00 | 0.01 | 0.00 | 24 | 1012.0 |
| 20260510094706 | 65 | 48 | 0.0 | 3.0 | 0.00 | 0.01 | 0.00 | 24 | 1012.1 |
| 20260510094206 | 65 | 70 | 0.0 | 3.0 | 0.00 | 0.01 | 0.00 | 24 | 1012.1 |
| 20260510093706 | 65 | 32 | 0.0 | 3.0 | 0.00 | 0.01 | 0.00 | 24 | 1012.1 |
| 20260510093206 | 66 | 32 | 0.0 | 3.0 | 0.00 | 0.01 | 0.00 | 23 | 1012.0 |
| 20260510092706 | 67 | 340 | 0.0 | 0.0 | 0.00 | 0.01 | 0.00 | 21 | 1011.9 |
| 20260510092206 | 68 | 340 | 0.0 | 0.0 | 0.00 | 0.01 | 0.00 | 21 | 1011.8 |
| 20260510091706 | 69 | 340 | 0.0 | 0.0 | 0.00 | 0.01 | 0.00 | 20 | 1011.8 |
| 20260510091206 | 69 | 340 | 0.0 | 5.0 | 0.00 | 0.01 | 0.00 | 19 | 1011.9 |
| 20260510090706 | 69 | 340 | 0.0 | 5.0 | 0.00 | 0.01 | 0.00 | 19 | 1011.8 |
| 20260510090206 | 68 | 6 | 3.0 | 4.0 | 0.00 | 0.01 | 0.00 | 19 | 1011.8 |
| 20260510085706 | 68 | 359 | 0.0 | 6.0 | 0.00 | 0.01 | 0.00 | 20 | 1011.8 |
| 20260510085206 | 68 | 354 | 4.0 | 6.0 | 0.00 | 0.01 | 0.00 | 20 | 1011.9 |
| 20260510084706 | 68 | 25 | 0.0 | 10.0 | 0.00 | 0.01 | 0.00 | 19 | 1011.8 |
| 20260510084206 | 68 | 328 | 3.0 | 10.0 | 0.00 | 0.01 | 0.00 | 19 | 1011.8 |
| 20260510083706 | 68 | 347 | 4.0 | 6.0 | 0.00 | 0.01 | 0.00 | 20 | 1011.7 |
| 20260510083206 | 69 | 194 | 0.0 | 12.0 | 0.00 | 0.01 | 0.00 | 19 | 1011.1 |
| 20260510082706 | 70 | 287 | 0.0 | 12.0 | 0.00 | 0.01 | 0.00 | 18 | 1011.3 |
| 20260510082206 | 71 | 319 | 3.0 | 8.0 | 0.00 | 0.01 | 0.00 | 17 | 1011.1 |
| 20260510081706 | 71 | 117 | 0.0 | 0.0 | 0.00 | 0.01 | 0.00 | 16 | 1010.7 |
| 20260510081206 | 72 | 117 | 0.0 | 0.0 | 0.00 | 0.01 | 0.00 | 15 | 1010.7 |
| 20260510080706 | 73 | 117 | 0.0 | 0.0 | 0.00 | 0.01 | 0.00 | 15 | 1010.8 |
| 20260510080206 | 74 | 117 | 0.0 | 7.0 | 0.00 | 0.01 | 0.00 | 14 | 1010.7 |
| 20260510075705 | 74 | 117 | 0.0 | 10.0 | 0.00 | 0.01 | 0.00 | 14 | 1010.7 |
| 20260510075205 | 73 | 131 | 5.0 | 10.0 | 0.00 | 0.01 | 0.00 | 14 | 1010.8 |
| 20260510074705 | 73 | 156 | 6.0 | 9.0 | 0.00 | 0.01 | 0.00 | 14 | 1010.8 |
| 20260510074205 | 74 | 197 | 6.0 | 9.0 | 0.00 | 0.01 | 0.00 | 13 | 1011.1 |
| 20260510073705 | 76 | 118 | 0.0 | 8.0 | 0.00 | 0.01 | 0.00 | 12 | 1011.1 |
| 20260510073205 | 77 | 149 | 0.0 | 10.0 | 0.00 | 0.01 | 0.00 | 12 | 1011.2 |
| 20260510072705 | 76 | 110 | 3.0 | 11.0 | 0.00 | 0.01 | 0.00 | 11 | 1011.2 |
| 20260510072205 | 75 | 132 | 7.0 | 11.0 | 0.00 | 0.01 | 0.00 | 12 | 1011.2 |
| 20260510071705 | 74 | 145 | 5.0 | 9.0 | 0.00 | 0.01 | 0.00 | 13 | 1011.3 |
| 20260510071205 | 73 | 191 | 0.0 | 0.0 | 0.00 | 0.01 | 0.00 | 14 | 1011.4 |
| 20260510070705 | 73 | 39 | 0.0 | 0.0 | 0.00 | 0.01 | 0.00 | 14 | 1011.2 |
| 20260510070205 | 72 | 39 | 0.0 | 0.0 | 0.00 | 0.01 | 0.00 | 15 | 1011.2 |
| 20260510065705 | 71 | 39 | 0.0 | 0.0 | 0.00 | 0.01 | 0.00 | 16 | 1011.4 |
| 20260510065205 | 71 | 39 | 0.0 | 0.0 | 0.00 | 0.01 | 0.00 | 16 | 1011.4 |
| 20260510064705 | 71 | 39 | 0.0 | 2.0 | 0.00 | 0.01 | 0.00 | 17 | 1011.3 |
| 20260510064205 | 72 | 39 | 0.0 | 2.0 | 0.00 | 0.01 | 0.00 | 17 | 1011.4 |
| 20260510063705 | 73 | 191 | 0.0 | 0.0 | 0.00 | 0.01 | 0.00 | 15 | 1011.5 |
| 20260510063205 | 73 | 191 | 0.0 | 0.0 | 0.00 | 0.01 | 0.00 | 14 | 1011.7 |
| 20260510062705 | 74 | 191 | 0.0 | 0.0 | 0.00 | 0.01 | 0.00 | 14 | 1011.5 |
| 20260510062205 | 74 | 191 | 0.0 | 0.0 | 0.00 | 0.01 | 0.00 | 14 | 1011.5 |
| 20260510061705 | 76 | 191 | 0.0 | 0.0 | 0.00 | 0.01 | 0.00 | 13 | 1011.5 |
| 20260510061205 | 77 | 191 | 0.0 | 0.0 | 0.00 | 0.01 | 0.00 | 12 | 1011.7 |
| 20260510060705 | 78 | 191 | 0.0 | 0.0 | 0.00 | 0.01 | 0.00 | 11 | 1011.5 |
| 20260510060205 | 78 | 191 | 0.0 | 0.0 | 0.00 | 0.01 | 0.00 | 11 | 1011.4 |
| 20260510055705 | 78 | 191 | 0.0 | 0.0 | 0.00 | 0.00 | 0.01 | 11 | 1011.4 |
| 20260510055205 | 79 | 191 | 0.0 | 0.0 | 0.00 | 0.00 | 0.01 | 10 | 1011.4 |
| 20260510054705 | 80 | 191 | 0.0 | 0.0 | 0.00 | 0.00 | 0.01 | 10 | 1011.3 |
| 20260510054205 | 80 | 191 | 0.0 | 7.0 | 0.00 | 0.00 | 0.01 | 9 | 1011.3 |
| 20260510053705 | 81 | 191 | 0.0 | 8.0 | 0.00 | 0.00 | 0.01 | 8 | 1011.2 |
| 20260510053205 | 81 | 186 | 4.0 | 8.0 | 0.00 | 0.00 | 0.01 | 8 | 1011.2 |
| 20260510052705 | 81 | 198 | 6.0 | 10.0 | 0.00 | 0.00 | 0.01 | 8 | 1011.2 |
| 20260510052205 | 81 | 195 | 5.0 | 13.0 | 0.00 | 0.00 | 0.01 | 8 | 1011.1 |
| 20260510051705 | 81 | 186 | 6.0 | 15.0 | 0.00 | 0.00 | 0.01 | 8 | 1011.1 |
| 20260510051205 | 82 | 208 | 7.0 | 15.0 | 0.00 | 0.00 | 0.01 | 8 | 1011.2 |
| 20260510050705 | 82 | 184 | 7.0 | 12.0 | 0.00 | 0.00 | 0.01 | 8 | 1011.2 |
| 20260510050205 | 82 | 174 | 8.0 | 15.0 | 0.00 | 0.00 | 0.01 | 7 | 1011.2 |
| 20260510045705 | 82 | 188 | 8.0 | 15.0 | 0.00 | 0.00 | 0.01 | 8 | 1011.2 |
| 20260510045205 | 81 | 212 | 8.0 | 12.0 | 0.00 | 0.00 | 0.01 | 8 | 1011.2 |
| 20260510044705 | 81 | 162 | 9.0 | 12.0 | 0.00 | 0.00 | 0.01 | 8 | 1011.2 |
| 20260510044205 | 81 | 179 | 8.0 | 12.0 | 0.00 | 0.00 | 0.01 | 8 | 1011.3 |
| 20260510043705 | 80 | 176 | 4.0 | 9.0 | 0.00 | 0.00 | 0.01 | 9 | 1011.3 |
| 20260510043205 | 80 | 183 | 0.0 | 6.0 | 0.00 | 0.00 | 0.01 | 9 | 1011.3 |
| 20260510042705 | 81 | 169 | 4.0 | 6.0 | 0.00 | 0.00 | 0.01 | 9 | 1011.3 |
| 20260510042206 | 81 | 176 | 0.0 | 7.0 | 0.00 | 0.00 | 0.01 | 9 | 1011.3 |
| 20260510041705 | 81 | 121 | 4.0 | 7.0 | 0.00 | 0.00 | 0.01 | 8 | 1011.3 |
| 20260510041205 | 81 | 142 | 1.0 | 7.0 | 0.00 | 0.00 | 0.01 | 8 | 1011.3 |
| 20260510040705 | 81 | 113 | 2.0 | 7.0 | 0.00 | 0.00 | 0.01 | 9 | 1011.2 |
| 20260510040205 | 81 | 128 | 2.0 | 7.0 | 0.00 | 0.00 | 0.01 | 9 | 1011.4 |
| 20260510035705 | 81 | 162 | 5.0 | 7.0 | 0.00 | 0.00 | 0.01 | 9 | 1011.4 |
| 20260510035205 | 81 | 134 | 0.0 | 6.0 | 0.00 | 0.00 | 0.01 | 9 | 1011.2 |
| 20260510034705 | 82 | 132 | 0.0 | 10.0 | 0.00 | 0.00 | 0.01 | 8 | 1011.2 |
| 20260510034205 | 81 | 156 | 2.0 | 10.0 | 0.00 | 0.00 | 0.01 | 8 | 1011.1 |
| 20260510033705 | 81 | 115 | 1.0 | 9.0 | 0.00 | 0.00 | 0.01 | 9 | 1011.1 |
| 20260510033205 | 81 | 162 | 4.0 | 9.0 | 0.00 | 0.00 | 0.01 | 9 | 1011.1 |
| 20260510032705 | 81 | 121 | 2.0 | 7.0 | 0.00 | 0.00 | 0.01 | 9 | 1011.0 |
| 20260510032205 | 81 | 145 | 3.0 | 10.0 | 0.00 | 0.00 | 0.01 | 9 | 1011.0 |
| 20260510031705 | 81 | 173 | 7.0 | 10.0 | 0.00 | 0.00 | 0.01 | 9 | 1011.0 |
| 20260510031205 | 81 | 156 | 4.0 | 7.0 | 0.00 | 0.00 | 0.01 | 9 | 1011.0 |
| 20260510030705 | 82 | 186 | 0.0 | 7.0 | 0.00 | 0.00 | 0.01 | 8 | 1010.8 |
| 20260510030205 | 82 | 118 | 1.0 | 7.0 | 0.00 | 0.00 | 0.01 | 9 | 1011.0 |
| 20260510025705 | 82 | 180 | 3.0 | 7.0 | 0.00 | 0.00 | 0.01 | 9 | 1010.8 |
| 20260510025205 | 81 | 160 | 0.0 | 8.0 | 0.00 | 0.00 | 0.01 | 9 | 1010.8 |
| 20260510024705 | 82 | 120 | 5.0 | 8.0 | 0.00 | 0.00 | 0.01 | 9 | 1010.7 |
| 20260510024205 | 81 | 128 | 5.0 | 7.0 | 0.00 | 0.00 | 0.01 | 9 | 1010.7 |
| 20260510023705 | 82 | 125 | 0.0 | 5.0 | 0.00 | 0.00 | 0.01 | 9 | 1010.6 |
| 20260510023205 | 82 | 91 | 0.0 | 5.0 | 0.00 | 0.00 | 0.01 | 9 | 1010.6 |
| 20260510022705 | 82 | 91 | 2.0 | 5.0 | 0.00 | 0.00 | 0.01 | 9 | 1010.5 |
| 20260510022205 | 82 | 240 | 0.0 | 0.0 | 0.00 | 0.00 | 0.01 | 9 | 1010.4 |
| 20260510021705 | 81 | 240 | 0.0 | 0.0 | 0.00 | 0.00 | 0.01 | 9 | 1010.4 |
| 20260510021205 | 81 | 240 | 0.0 | 0.0 | 0.00 | 0.00 | 0.01 | 10 | 1010.4 |
| 20260510020705 | 82 | 240 | 0.0 | 0.0 | 0.00 | 0.00 | 0.01 | 10 | 1010.4 |
| 20260510020205 | 82 | 240 | 0.0 | 0.0 | 0.00 | 0.00 | 0.01 | 9 | 1010.4 |
| 20260510015705 | 83 | 240 | 0.0 | 0.0 | 0.00 | 0.00 | 0.01 | 9 | 1010.4 |
| 20260510015205 | 83 | 240 | 0.0 | 0.0 | 0.00 | 0.00 | 0.01 | 9 | 1010.3 |
| 20260510014705 | 84 | 240 | 0.0 | 0.0 | 0.00 | 0.00 | 0.01 | 9 | 1010.3 |
| 20260510014205 | 84 | 240 | 0.0 | 0.0 | 0.00 | 0.00 | 0.01 | 8 | 1010.3 |
| 20260510013705 | 85 | 240 | 0.0 | 8.0 | 0.00 | 0.00 | 0.01 | 8 | 1010.3 |
| 20260510013205 | 85 | 240 | 0.0 | 8.0 | 0.00 | 0.00 | 0.01 | 7 | 1010.1 |
| 20260510012705 | 86 | 193 | 4.0 | 8.0 | 0.00 | 0.00 | 0.01 | 7 | 1010.1 |
| 20260510012205 | 86 | 170 | 1.0 | 8.0 | 0.00 | 0.00 | 0.01 | 7 | 1010.1 |
| 20260510011705 | 87 | 179 | 0.0 | 9.0 | 0.00 | 0.00 | 0.01 | 7 | 1010.1 |
| 20260510011205 | 87 | 186 | 6.0 | 10.0 | 0.00 | 0.00 | 0.01 | 7 | 1010.1 |
| 20260510010705 | 87 | 188 | 7.0 | 11.0 | 0.00 | 0.00 | 0.01 | 7 | 1010.1 |
| 20260510010205 | 87 | 183 | 7.0 | 13.0 | 0.00 | 0.00 | 0.01 | 7 | 1010.1 |
| 20260510005705 | 87 | 212 | 6.0 | 13.0 | 0.00 | 0.00 | 0.01 | 7 | 1010.0 |
| 20260510005205 | 87 | 226 | 4.0 | 8.0 | 0.00 | 0.00 | 0.01 | 7 | 1010.1 |
| 20260510004705 | 88 | 231 | 0.0 | 2.0 | 0.00 | 0.00 | 0.01 | 7 | 1010.1 |
| 20260510004205 | 88 | 231 | 0.0 | 7.0 | 0.00 | 0.00 | 0.01 | 7 | 1010.1 |
| 20260510003705 | 88 | 225 | 0.0 | 8.0 | 0.00 | 0.00 | 0.01 | 7 | 1010.3 |
| 20260510003205 | 88 | 217 | 5.0 | 11.0 | 0.00 | 0.00 | 0.01 | 6 | 1010.3 |
| 20260510002705 | 88 | 207 | 7.0 | 11.0 | 0.00 | 0.00 | 0.01 | 6 | 1010.3 |
| 20260510002205 | 88 | 184 | 6.0 | 9.0 | 0.00 | 0.00 | 0.01 | 6 | 1010.3 |
| 20260510001705 | 89 | 203 | 0.0 | 7.0 | 0.00 | 0.00 | 0.01 | 7 | 1010.3 |
| 20260510001205 | 89 | 233 | 0.0 | 7.0 | 0.00 | 0.00 | 0.01 | 6 | 1010.3 |
| 20260510000705 | 89 | 224 | 2.0 | 9.0 | 0.00 | 0.00 | 0.01 | 6 | 1010.4 |
| 20260510000205 | 89 | 263 | 0.0 | 12.0 | 0.00 | 0.00 | 0.01 | 6 | 1010.4 |
| 20260509235705 | 89 | 225 | 7.0 | 12.0 | 0.00 | 0.00 | 0.01 | 6 | 1010.4 |
| 20260509235205 | 89 | 190 | 5.0 | 11.0 | 0.00 | 0.00 | 0.01 | 6 | 1010.4 |
| 20260509234705 | 89 | 174 | 5.0 | 12.0 | 0.00 | 0.00 | 0.01 | 6 | 1010.5 |
| 20260509234205 | 89 | 180 | 5.0 | 12.0 | 0.00 | 0.00 | 0.01 | 6 | 1010.5 |
| 20260509233705 | 89 | 217 | 0.0 | 10.0 | 0.00 | 0.00 | 0.01 | 6 | 1010.5 |
| 20260509233205 | 89 | 212 | 0.0 | 13.0 | 0.00 | 0.00 | 0.01 | 7 | 1010.6 |
| 20260509232705 | 90 | 195 | 5.0 | 13.0 | 0.00 | 0.00 | 0.01 | 6 | 1010.7 |
| 20260509232205 | 90 | 291 | 2.0 | 11.0 | 0.00 | 0.00 | 0.01 | 6 | 1010.6 |
| 20260509231705 | 90 | 204 | 4.0 | 8.0 | 0.00 | 0.00 | 0.01 | 6 | 1010.6 |
| 20260509231205 | 90 | 311 | 1.0 | 7.0 | 0.00 | 0.00 | 0.01 | 7 | 1010.6 |
| 20260509230705 | 90 | 170 | 5.0 | 11.0 | 0.00 | 0.00 | 0.01 | 6 | 1010.7 |
| 20260509230205 | 90 | 145 | 5.0 | 11.0 | 0.00 | 0.00 | 0.01 | 6 | 1010.7 |
| 20260509225705 | 91 | 233 | 0.0 | 9.0 | 0.00 | 0.00 | 0.01 | 7 | 1010.8 |
| 20260509225204 | 90 | 214 | 5.0 | 9.0 | 0.00 | 0.00 | 0.01 | 6 | 1010.8 |
| 20260509224704 | 91 | 195 | 4.0 | 9.0 | 0.00 | 0.00 | 0.01 | 6 | 1010.8 |
| 20260509224205 | 91 | 197 | 0.0 | 8.0 | 0.00 | 0.00 | 0.01 | 6 | 1011.0 |
| 20260509223704 | 91 | 200 | 3.0 | 8.0 | 0.00 | 0.00 | 0.01 | 6 | 1011.0 |
| 20260509223204 | 91 | 277 | 0.0 | 8.0 | 0.00 | 0.00 | 0.01 | 6 | 1011.0 |
| 20260509222704 | 91 | 250 | 0.0 | 8.0 | 0.00 | 0.00 | 0.01 | 7 | 1011.1 |
| 20260509222204 | 90 | 287 | 1.0 | 7.0 | 0.00 | 0.00 | 0.01 | 7 | 1011.2 |
| 20260509221704 | 90 | 233 | 0.0 | 8.0 | 0.00 | 0.00 | 0.01 | 7 | 1011.3 |
| 20260509221204 | 90 | 8 | 4.0 | 8.0 | 0.00 | 0.00 | 0.01 | 6 | 1011.3 |
| 20260509220704 | 90 | 340 | 0.0 | 8.0 | 0.00 | 0.00 | 0.01 | 6 | 1011.4 |
| 20260509220204 | 89 | 38 | 0.0 | 8.0 | 0.00 | 0.00 | 0.01 | 7 | 1011.5 |
| 20260509215704 | 89 | 167 | 3.0 | 6.0 | 0.00 | 0.00 | 0.01 | 7 | 1011.8 |
| 20260509215204 | 89 | 23 | 2.0 | 11.0 | 0.00 | 0.00 | 0.01 | 6 | 1011.8 |
| 20260509214704 | 89 | 188 | 4.0 | 11.0 | 0.00 | 0.00 | 0.01 | 6 | 1011.9 |
| 20260509214204 | 89 | 153 | 5.0 | 10.0 | 0.00 | 0.00 | 0.01 | 7 | 1011.9 |
| 20260509213704 | 89 | 37 | 1.0 | 13.0 | 0.00 | 0.00 | 0.01 | 6 | 1012.0 |
| 20260509213204 | 90 | 197 | 5.0 | 13.0 | 0.00 | 0.00 | 0.01 | 6 | 1012.1 |
| 20260509212704 | 90 | 210 | 0.0 | 11.0 | 0.00 | 0.00 | 0.01 | 7 | 1012.1 |
| 20260509212204 | 90 | 190 | 1.0 | 9.0 | 0.00 | 0.00 | 0.01 | 7 | 1012.2 |
| 20260509211704 | 89 | 162 | 0.0 | 10.0 | 0.00 | 0.00 | 0.01 | 4 | 1012.5 |
| 20260509211204 | 89 | 211 | 3.0 | 10.0 | 0.00 | 0.00 | 0.01 | 7 | 1012.6 |
| 20260509210704 | 90 | 211 | 2.0 | 9.0 | 0.00 | 0.00 | 0.01 | 7 | 1012.7 |
| 20260509210204 | 90 | 134 | 0.0 | 7.0 | 0.00 | 0.00 | 0.01 | 7 | 1012.7 |
| 20260509205704 | 91 | 228 | 1.0 | 8.0 | 0.00 | 0.00 | 0.01 | 7 | 1012.8 |
| 20260509205204 | 91 | 270 | 4.0 | 8.0 | 0.00 | 0.00 | 0.01 | 6 | 1012.9 |
| 20260509204704 | 90 | 273 | 1.0 | 7.0 | 0.00 | 0.00 | 0.01 | 7 | 1012.9 |
| 20260509204204 | 90 | 179 | 0.0 | 9.0 | 0.00 | 0.00 | 0.01 | 7 | 1013.1 |
| 20260509203704 | 90 | 263 | 3.0 | 9.0 | 0.00 | 0.00 | 0.01 | 7 | 1013.1 |
| 20260509203204 | 90 | 219 | 0.0 | 6.0 | 0.00 | 0.00 | 0.01 | 7 | 1013.2 |
| 20260509202704 | 90 | 173 | 2.0 | 8.0 | 0.00 | 0.00 | 0.01 | 7 | 1013.4 |
| 20260509202204 | 89 | 193 | 0.0 | 8.0 | 0.00 | 0.00 | 0.01 | 7 | 1013.3 |
| 20260509201704 | 89 | 245 | 0.0 | 11.0 | 0.00 | 0.00 | 0.01 | 7 | 1013.4 |
| 20260509201204 | 89 | 259 | 4.0 | 11.0 | 0.00 | 0.00 | 0.01 | 7 | 1013.5 |
| 20260509200704 | 89 | 177 | 1.0 | 9.0 | 0.00 | 0.00 | 0.01 | 6 | 1013.5 |
| 20260509200204 | 88 | 321 | 0.0 | 9.0 | 0.00 | 0.00 | 0.01 | 8 | 1013.5 |
| 20260509195716 | 88 | 294 | 4.0 | 9.0 | 0.00 | 0.00 | 0.01 | 7 | 1013.5 |
| 20260509195216 | 88 | 181 | 0.0 | 8.0 | 0.00 | 0.00 | 0.01 | 8 | 1013.6 |
| 20260509194716 | 88 | 205 | 0.0 | 5.0 | 0.00 | 0.00 | 0.01 | 8 | 1013.8 |
| 20260509194216 | 88 | 218 | 0.0 | 7.0 | 0.00 | 0.00 | 0.01 | 7 | 1013.8 |
| 20260509193716 | 88 | 187 | 4.0 | 7.0 | 0.00 | 0.00 | 0.01 | 7 | 1013.8 |
| 20260509193216 | 88 | 256 | 1.0 | 6.0 | 0.00 | 0.00 | 0.01 | 8 | 1013.9 |
| 20260509192716 | 88 | 195 | 0.0 | 2.0 | 0.00 | 0.00 | 0.01 | 8 | 1014.0 |